User: anonymous   Login
Location: *
(48.7358°N, 0.3111°E)
Time: 15:57:00
(UTC+00:00)
Language:

Cosmos 1758 Rocket - Orbit

View from above orbital plane
View from above orbital plane
View from above satellite
View from above satellite

Ground track
Ground track

The orbit data is extracted from the following two-line orbital elements,

1 16792U 86046B   19345.78957767  .00000080  00000-0  67740-5 0  9994
2 16792  82.4842  68.3375 0024189 180.9516 289.6386 14.83228574809419
Epoch (UTC): 11 December 2019 18:56:59
Eccentricity: 0.0024189
inclination: 82.4842°
perigee height: 602 km
apogee height: 636 km
right ascension of ascending node: 68.3375°
argument of perigee: 180.9516°
revolutions per day: 14.83228574
mean anomaly at epoch: 289.6386°
orbit number at epoch: 80941

The dashed part of the orbit path shows where the satellite is in the earth's shadow,  

DLR